sat.trackr.live / text

‹ back to catalog

SDS-4

NORAD 38339 · 2012-025C

PAYLOAD ACTIVE UNKNOWN

§ Identity

Operator
Country
JPN
Launch date
2012-05-17
Launch site
TANSC
Launch vehicle
Mass (kg)
RCS (m²)
0.45

External: N2YO · Heavens-Above · Gunter

§ Orbital elements

Epoch: 2026-09-20T05:35:13.959744Z

Period
97.56 min
Inclination
98.1372°
Eccentricity
0.0006887
Mean motion
14.75948422 rev/d
Perigee alt
637.3 km
Apogee alt
647.0 km
Semi-major
7,020.3 km
B*
7.7456e-5
RAAN
359.7813°
Arg perigee
5.0590°
Mean anomaly
355.0687°
Rev number
77,000

§ Raw data

SDS-41 38339U 12025C   26263.23280046  .00000480  00000+0  77456-4 0  99942 38339  98.1372 359.7813 0006887   5.0590 355.0687 14.75948422770006

JSON: /api/v1/satellites/38339 · /tle

For live sub-satellite position, see the globe view (requires WebGL).

§ Visibility from observer

Set your observer location to see the next 7 days of passes ≥ 10°. The values pass through the URL so the page stays shareable.

No JS? Fill the form by hand. The geolocation button needs JavaScript.